EW7144 Weather Reports


time (UTC)temp
F
wind
direction
speed
knots
gust
knots
rain 1hr
in
rain 24hr
in
rain mn
in
humidity
%
barometer
mb
20260906011906 56 341 14.8 25.2 0.05 0.28 0.28 88 1005.5
20260906011407 56 355 15.6 30.4 0.06 0.28 0.28 88 1005.6
20260906010908 56 350 14.8 26.9 0.06 0.28 0.28 89 1005.7
20260906005907 56 357 11.3 18.2 0.08 0.28 0.28 89 1005.9
20260906004407 56 351 11.3 19.1 0.09 0.28 0.28 90 1006.4
20260906003907 56 348 11.3 22.6 0.09 0.27 0.27 90 1006.3
20260906003407 56 349 11.3 18.2 0.09 0.27 0.27 90 1006.5
20260906002906 56 344 15.6 24.3 0.09 0.25 0.25 90 1006.6
20260906002408 56 356 10.4 18.2 0.08 0.24 0.24 90 1006.8
20260906001907 56 347 7.0 13.9 0.09 0.24 0.24 90 1007.0
20260906001408 56 341 9.6 17.4 0.09 0.23 0.23 90 1007.4
20260906000907 56 355 7.8 13.9 0.09 0.22 0.22 90 1007.7
20260906000407 56 350 8.7 13.0 0.09 0.20 0.20 90 1007.6
20260905235908 56 352 8.7 19.1 0.09 0.20 0.20 90 1007.3
20260905235407 56 0 8.7 17.4 0.08 0.20 0.20 90 1007.3
20260905234907 56 342 7.8 15.6 0.07 0.19 0.19 90 1007.6
20260905234406 56 351 7.8 13.0 0.07 0.19 0.19 90 1008.0
20260905233906 56 348 7.8 17.4 0.06 0.18 0.18 90 1008.4
20260905233407 56 350 9.6 20.9 0.06 0.17 0.17 90 1008.6
20260905232907 56 343 10.4 24.3 0.05 0.17 0.17 90 1008.8
20260905232407 56 351 9.6 22.6 0.04 0.16 0.16 90 1008.7
20260905231906 57 333 8.7 18.2 0.03 0.15 0.15 90 1008.8
20260905230907 57 346 9.6 17.4 0.01 0.13 0.13 89 1009.0
20260905225907 57 348 6.1 15.6 0.00 0.12 0.12 89 1008.9
20260905225407 57 351 7.8 15.6 0.00 0.12 0.12 90 1009.0
20260905224406 57 353 7.8 17.4 0.00 0.12 0.12 90 1009.1
20260905223907 56 341 7.8 17.4 0.00 0.12 0.12 90 1009.1
20260905223408 56 343 8.7 19.1 0.01 0.12 0.12 90 1009.1
20260905222906 56 341 8.7 18.2 0.01 0.12 0.12 90 1009.1
20260905222406 56 352 10.4 15.6 0.01 0.12 0.12 90 1009.2
20260905221906 56 351 8.7 17.4 0.01 0.12 0.12 90 1009.3
20260905221407 56 333 7.8 14.8 0.01 0.12 0.12 90 1009.3
20260905220907 56 345 7.8 13.0 0.01 0.12 0.12 90 1009.4
20260905220407 56 334 7.8 15.6 0.01 0.12 0.12 90 1009.5
20260905215907 56 348 6.1 15.6 0.01 0.12 0.12 90 1009.6
20260905215407 56 352 7.0 13.0 0.01 0.12 0.12 90 1009.7
20260905214907 56 336 8.7 17.4 0.02 0.12 0.12 90 1009.7
20260905214406 56 343 7.0 12.2 0.02 0.12 0.12 90 1009.7
20260905213907 56 346 7.0 15.6 0.03 0.12 0.12 90 1009.9
20260905213407 56 346 8.7 15.6 0.02 0.11 0.11 90 1010.0
20260905212907 56 326 7.8 13.0 0.02 0.11 0.11 90 1010.1
20260905211911 56 342 10.4 18.2 0.03 0.11 0.11 90 1010.2
20260905211407 56 356 7.0 14.8 0.03 0.11 0.11 90 1010.3
20260905210906 56 348 8.7 17.4 0.04 0.11 0.11 90 1010.3
20260905210406 56 349 8.7 17.4 0.05 0.11 0.11 90 1010.4
20260905205907 56 349 10.4 15.6 0.05 0.11 0.11 90 1010.5
20260905205407 56 351 10.4 15.6 0.05 0.11 0.11 90 1010.7
20260905204907 56 346 8.7 17.4 0.05 0.10 0.10 90 1010.7
20260905204406 56 346 8.7 14.8 0.04 0.09 0.09 90 1010.8
20260905203907 56 354 10.4 17.4 0.04 0.09 0.09 90 1010.9
20260905203406 56 348 10.4 18.2 0.04 0.09 0.09 90 1010.9
20260905202907 56 345 8.7 13.9 0.05 0.09 0.09 90 1011.0
20260905202406 56 341 7.8 15.6 0.06 0.09 0.09 90 1011.0
20260905201907 56 348 10.4 15.6 0.05 0.08 0.08 90 1011.0
20260905201407 56 340 7.8 18.2 0.05 0.08 0.08 90 1010.9
20260905200907 56 320 8.7 15.6 0.04 0.07 0.07 90 1010.9
20260905200407 56 343 10.4 18.2 0.06 0.06 0.06 90 1011.0
20260905195907 56 349 9.6 15.6 0.06 0.06 0.06 90 1011.0
20260905195406 56 332 8.7 17.4 0.06 0.06 0.06 90 1011.0
20260905194907 56 343 7.8 13.0 0.06 0.06 0.06 90 1011.1
20260905194407 56 347 7.8 14.8 0.06 0.06 0.06 90 1011.0
20260905193907 56 335 6.1 15.6 0.05 0.05 0.05 90 1011.0
20260905193406 56 348 8.7 17.4 0.05 0.05 0.05 90 1011.1
20260905190907 56 343 9.6 15.6 0.03 0.03 0.03 90 1011.0
20260905190406 56 340 7.8 13.9 0.00 0.00 0.00 90 1011.0
20260905185906 56 346 7.0 14.8 0.00 0.00 0.00 90 1011.1
20260905185407 56 351 7.8 17.4 0.00 0.00 0.00 90 1011.0
20260905184406 56 348 7.0 13.0 0.00 0.00 0.00 90 1011.2
20260905183406 56 352 6.1 13.0 0.00 0.00 0.00 89 1011.2
20260905182906 56 335 5.2 10.4 0.00 0.00 0.00 89 1011.2
20260905182406 56 345 6.1 11.3 0.00 0.00 0.00 89 1011.2
20260905180906 56 345 4.3 10.4 0.00 0.00 0.00 89 1011.1
20260905180407 56 342 4.3 10.4 0.00 0.00 0.00 89 1011.0
20260905175907 56 340 3.5 13.9 0.00 0.00 0.00 89 1011.0
20260905175406 56 350 7.8 12.2 0.00 0.00 0.00 89 1011.2
20260905174406 56 340 6.1 13.9 0.00 0.00 0.00 89 1011.2
20260905173907 56 351 7.0 12.2 0.00 0.00 0.00 89 1011.2
20260905173407 56 348 7.8 11.3 0.00 0.00 0.00 89 1011.1
20260905172906 56 351 7.0 13.0 0.00 0.00 0.00 89 1011.0
20260905172406 56 340 7.8 12.2 0.00 0.00 0.00 89 1011.0
20260905171907 56 338 8.7 17.4 0.00 0.00 0.00 89 1011.0
20260905170906 56 345 7.8 15.6 0.00 0.00 0.00 89 1011.1
20260905170407 56 347 7.0 12.2 0.00 0.00 0.00 89 1011.1
20260905165906 57 339 5.2 13.9 0.00 0.00 0.00 89 1011.2
20260905165406 57 350 7.8 17.4 0.00 0.00 0.00 89 1011.2
20260905164906 56 342 7.8 13.0 0.00 0.00 0.00 89 1011.1
20260905163906 56 329 6.1 14.8 0.00 0.00 0.00 89 1011.0
20260905163406 56 345 8.7 17.4 0.00 0.00 0.00 89 1010.8
20260905162906 56 335 4.3 13.9 0.00 0.00 0.00 89 1010.7
20260905162406 55 347 4.3 12.2 0.00 0.00 0.00 89 1010.7
20260905161906 55 326 4.3 11.3 0.00 0.00 0.00 89 1010.6
20260905160907 56 330 4.3 14.8 0.00 0.00 0.00 89 1010.5
20260905160406 56 344 8.7 17.4 0.00 0.00 0.00 89 1010.4
20260905155906 56 341 10.4 17.4 0.00 0.00 0.00 89 1010.5
20260905154907 56 351 7.0 12.2 0.00 0.00 0.00 89 1010.6
20260905154406 56 343 5.2 11.3 0.00 0.00 0.00 89 1010.6
20260905153907 56 342 4.3 12.2 0.00 0.00 0.00 89 1010.7
20260905153406 56 347 6.1 12.2 0.00 0.00 0.00 89 1010.7
20260905152910 56 338 5.2 13.9 0.00 0.00 0.00 89 1010.6
20260905152407 56 285 6.1 14.8 0.00 0.00 0.00 89 1010.6
20260905151907 56 319 5.2 13.0 0.00 0.00 0.00 89 1010.6
20260905150906 56 331 3.5 12.2 0.00 0.00 0.00 89 1010.6
20260905150407 56 301 5.2 12.2 0.00 0.00 0.00 89 1010.6
20260905145907 56 317 3.5 13.0 0.00 0.00 0.00 89 1010.6
20260905145406 56 335 4.3 13.9 0.00 0.00 0.00 88 1010.6
20260905144906 56 242 4.3 12.2 0.00 0.00 0.00 88 1010.6
20260905144407 56 317 5.2 11.3 0.00 0.00 0.00 88 1010.5
20260905143907 56 318 5.2 11.3 0.00 0.00 0.00 88 1010.6
20260905143407 56 294 5.2 13.0 0.00 0.00 0.00 88 1010.8
20260905142907 56 281 6.1 12.2 0.00 0.00 0.00 88 1010.8
20260905142407 56 307 4.3 10.4 0.00 0.00 0.00 88 1010.9
20260905141906 56 321 5.2 13.0 0.00 0.00 0.00 88 1011.0
20260905141407 56 299 5.2 13.0 0.00 0.00 0.00 88 1011.0
20260905140907 56 318 4.3 13.0 0.00 0.00 0.00 88 1011.0
20260905140407 56 325 3.5 13.0 0.00 0.00 0.00 88 1011.0
20260905135906 56 307 5.2 13.9 0.00 0.00 0.00 88 1010.9
20260905135406 56 343 6.1 19.1 0.00 0.00 0.00 88 1011.1
20260905134906 56 330 6.1 13.9 0.00 0.00 0.00 88 1011.1
20260905134406 56 320 4.3 11.3 0.00 0.00 0.00 88 1011.3
20260905133906 56 335 8.7 18.2 0.00 0.00 0.00 88 1011.4
20260905132906 56 320 7.0 19.1 0.00 0.00 0.00 87 1011.7
20260905132407 56 333 8.7 15.6 0.00 0.00 0.00 87 1011.8
20260905131906 56 338 7.0 17.4 0.00 0.00 0.00 87 1011.8
20260905130907 56 346 8.7 15.6 0.00 0.00 0.00 87 1011.9
20260905130406 56 336 9.6 17.4 0.00 0.00 0.00 87 1012.0
20260905125907 56 343 7.8 22.6 0.00 0.00 0.00 87 1011.9
20260905125406 56 344 9.6 20.0 0.00 0.00 0.00 87 1011.9
20260905124906 56 350 12.2 21.7 0.00 0.00 0.00 87 1011.9
20260905124406 56 324 7.8 17.4 0.00 0.00 0.00 87 1011.9
20260905123906 56 305 6.1 20.0 0.00 0.00 0.00 87 1012.0
20260905123406 56 334 6.1 13.9 0.00 0.00 0.00 87 1012.0
20260905122906 56 287 7.0 20.0 0.00 0.00 0.00 87 1012.0
20260905122406 56 327 6.1 17.4 0.00 0.00 0.00 87 1011.9
20260905120907 56 287 7.8 20.0 0.00 0.00 0.00 87 1012.0
20260905120406 56 337 8.7 20.0 0.00 0.00 0.00 87 1012.1
20260905115908 56 303 10.4 19.1 0.00 0.00 0.00 87 1012.2
20260905115406 56 334 11.3 21.7 0.00 0.00 0.00 87 1012.1
20260905114906 56 324 8.7 21.7 0.00 0.00 0.00 87 1012.1
20260905113907 56 335 6.1 17.4 0.00 0.00 0.00 86 1012.1
20260905113406 56 247 9.6 22.6 0.00 0.00 0.00 86 1012.1
20260905112906 56 332 9.6 18.2 0.00 0.00 0.00 86 1012.3
20260905112406 56 343 7.8 17.4 0.00 0.00 0.00 86 1012.4
20260905111907 56 290 10.4 20.0 0.00 0.00 0.00 86 1012.4
20260905111406 56 322 10.4 20.9 0.00 0.00 0.00 87 1012.4
20260905110906 56 309 8.7 19.1 0.00 0.00 0.00 87 1012.4
20260905110406 56 340 7.0 22.6 0.00 0.00 0.00 87 1012.3
20260905105906 56 337 10.4 21.7 0.00 0.00 0.00 87 1012.3
20260905105406 56 341 10.4 17.4 0.00 0.00 0.00 87 1012.4
20260905104910 56 329 10.4 18.2 0.00 0.00 0.00 87 1012.2
20260905104406 56 344 7.8 20.0 0.00 0.00 0.00 87 1012.2
20260905103406 55 336 7.8 21.7 0.00 0.00 0.00 87 1012.2
20260905102907 55 312 7.0 17.4 0.00 0.00 0.00 87 1012.4
20260905102407 55 341 8.7 20.9 0.00 0.00 0.00 87 1012.5
20260905101907 55 333 8.7 20.0 0.00 0.00 0.00 87 1012.4
20260905101406 55 321 7.8 15.6 0.00 0.00 0.00 87 1012.4
20260905100906 55 308 7.0 21.7 0.00 0.00 0.00 87 1012.4
20260905100406 55 334 8.7 17.4 0.00 0.00 0.00 87 1012.4
20260905095906 55 322 4.3 12.2 0.00 0.00 0.00 86 1012.4
20260905094906 56 228 5.2 13.0 0.00 0.00 0.00 85 1012.4
20260905093906 56 317 6.1 14.8 0.00 0.00 0.00 85 1012.2
20260905093406 55 243 7.8 13.9 0.00 0.00 0.00 85 1012.2
20260905092906 55 283 7.8 17.4 0.00 0.00 0.00 85 1012.2
20260905092406 56 264 7.8 14.8 0.00 0.00 0.00 85 1012.4
20260905091910 55 279 6.1 17.4 0.00 0.00 0.00 85 1012.4
20260905091407 55 311 7.8 20.0 0.00 0.00 0.00 85 1012.5
20260905090906 56 242 7.0 13.9 0.00 0.00 0.00 85 1012.5
20260905090406 56 333 6.1 19.1 0.00 0.00 0.00 85 1012.6
20260905085908 56 297 5.2 15.6 0.00 0.00 0.00 85 1012.5
20260905085407 56 290 4.3 14.8 0.00 0.00 0.00 85 1012.4
20260905084906 56 344 5.2 14.8 0.00 0.00 0.00 85 1012.3
20260905084410 55 237 7.0 20.0 0.00 0.00 0.00 85 1012.1
20260905083408 55 279 7.8 17.4 0.00 0.00 0.00 85 1011.8
20260905082906 55 277 8.7 20.0 0.00 0.00 0.00 84 1011.9
20260905082407 55 310 9.6 22.6 0.00 0.00 0.00 84 1012.0
20260905081908 55 320 9.6 20.0 0.00 0.00 0.00 84 1012.0
20260905081407 56 312 8.7 21.7 0.00 0.00 0.00 84 1011.9
20260905080907 56 318 8.7 22.6 0.00 0.00 0.00 83 1012.0
20260905080406 55 322 10.4 18.2 0.00 0.00 0.00 83 1012.0
20260905075906 55 309 7.8 19.1 0.00 0.00 0.00 83 1012.0
20260905075407 55 323 9.6 21.7 0.00 0.00 0.00 84 1012.0
20260905074906 55 325 8.7 19.1 0.00 0.00 0.00 84 1012.0
20260905074406 56 334 8.7 18.2 0.00 0.00 0.00 85 1012.1
20260905073906 55 327 10.4 20.9 0.00 0.00 0.00 85 1012.0
20260905073406 55 349 6.1 18.2 0.00 0.00 0.00 85 1012.0
20260905072906 55 335 7.8 17.4 0.00 0.00 0.00 85 1011.9
20260905072406 55 339 6.1 19.1 0.00 0.00 0.00 85 1011.9
20260905071907 55 331 7.8 18.2 0.00 0.00 0.00 85 1011.9
20260905071406 55 311 7.8 18.2 0.00 0.00 0.00 86 1011.9
20260905070906 55 252 7.0 17.4 0.00 0.00 0.00 86 1011.9
20260905070406 55 228 7.8 19.1 0.00 0.00 0.00 86 1011.8
20260905065907 55 231 7.8 20.9 0.00 0.00 0.00 86 1011.8
20260905065407 55 319 5.2 22.6 0.00 0.00 0.00 86 1011.8
20260905064906 55 332 5.2 17.4 0.00 0.00 0.00 86 1011.8
20260905064406 55 320 5.2 18.2 0.00 0.00 0.00 86 1011.8
20260905063906 55 344 9.6 22.6 0.00 0.00 0.00 86 1011.8
20260905062906 55 306 7.0 17.4 0.00 0.00 0.00 86 1011.7
20260905062407 55 344 6.1 20.9 0.00 0.00 0.00 86 1011.6
20260905061906 55 299 7.8 17.4 0.00 0.00 0.00 86 1011.4
20260905061406 55 228 8.7 20.9 0.00 0.00 0.00 86 1011.3
20260905060907 55 320 9.6 20.0 0.00 0.00 0.00 85 1011.4
20260905060406 55 343 10.4 24.3 0.00 0.00 0.00 85 1011.3
20260905055906 55 0 11.3 21.7 0.00 0.00 0.00 84 1011.3
20260905055406 56 316 12.2 21.7 0.00 0.00 0.00 84 1011.2
20260905054407 56 343 13.0 26.1 0.00 0.00 0.00 83 1011.3
20260905053906 56 343 9.6 22.6 0.00 0.00 0.00 82 1011.2
20260905053406 56 254 9.6 25.2 0.00 0.00 0.00 81 1011.1
20260905052906 56 330 11.3 25.2 0.00 0.00 0.00 80 1011.2
20260905052406 56 345 12.2 28.7 0.00 0.00 0.00 80 1011.3
20260905051407 56 340 11.3 22.6 0.00 0.00 0.00 81 1011.4
20260905050907 56 337 12.2 22.6 0.00 0.00 0.00 81 1011.7
20260905050406 56 340 12.2 21.7 0.00 0.00 0.00 82 1011.6
20260905045906 57 348 9.6 22.6 0.00 0.00 0.00 83 1011.7
20260905045407 57 326 12.2 19.1 0.00 0.00 0.00 82 1011.9
20260905044906 57 334 10.4 22.6 0.00 0.00 0.00 82 1012.0
20260905043406 57 323 10.4 22.6 0.00 0.00 0.00 82 1012.1
20260905042906 57 347 11.3 17.4 0.00 0.00 0.00 82 1012.1
20260905042407 57 346 11.3 21.7 0.00 0.00 0.00 82 1012.1
20260905041907 57 335 7.8 19.1 0.00 0.00 0.00 82 1012.1
20260905041407 57 351 11.3 24.3 0.00 0.00 0.00 82 1012.1
20260905035906 57 340 10.4 26.1 0.00 0.00 0.00 81 1012.3
20260905035407 57 334 10.4 22.6 0.00 0.00 0.00 82 1012.3
20260905034907 57 344 10.4 20.0 0.00 0.00 0.00 80 1012.4
20260905034406 57 348 13.9 20.9 0.00 0.00 0.00 79 1012.4
20260905033406 58 346 12.2 30.4 0.00 0.00 0.00 80 1012.7
20260905032906 58 329 7.8 20.9 0.00 0.00 0.00 80 1012.9
20260905032406 58 342 7.8 19.1 0.00 0.00 0.00 80 1012.9
20260905031907 57 336 6.1 17.4 0.00 0.00 0.00 80 1012.9
20260905031406 57 352 7.8 15.6 0.00 0.00 0.00 80 1012.9
20260905030906 58 337 10.4 19.1 0.00 0.00 0.00 79 1012.9
20260905030406 58 323 11.3 19.1 0.00 0.00 0.00 78 1012.9
20260905025906 58 325 7.8 19.1 0.00 0.00 0.00 79 1012.9
20260905025406 58 325 10.4 17.4 0.00 0.00 0.00 78 1013.0
20260905024907 58 308 8.7 18.2 0.00 0.00 0.00 78 1012.9
20260905023907 58 326 10.4 22.6 0.00 0.00 0.00 79 1013.2
20260905023406 58 311 9.6 19.1 0.00 0.00 0.00 79 1013.2
20260905022906 58 325 8.7 20.0 0.00 0.00 0.00 80 1013.3
20260905022406 57 332 7.8 17.4 0.00 0.00 0.00 81 1013.3
20260905021906 57 303 6.1 19.1 0.00 0.00 0.00 82 1013.3
20260905021406 56 319 9.6 20.9 0.00 0.00 0.00 81 1013.3
20260905020906 56 313 9.6 17.4 0.00 0.00 0.00 82 1013.3
20260905020406 56 334 7.8 17.4 0.00 0.00 0.00 83 1013.4
20260905015906 55 338 6.1 15.6 0.00 0.00 0.00 83 1013.4
20260905015406 56 344 7.0 20.0 0.00 0.00 0.00 84 1013.5
20260905014906 56 311 6.1 15.6 0.00 0.00 0.00 85 1013.6
20260905014406 55 324 7.8 18.2 0.00 0.00 0.00 85 1013.8
20260905013406 55 297 7.0 20.9 0.00 0.00 0.00 83 1014.0
20260905012906 55 341 8.7 22.6 0.00 0.00 0.00 83 1014.2